{"data":{"norad_id":58086,"intl_designator":"2023-160M","name":"STARLINK-30583","alt_names":[],"object_type":"PAYLOAD","status":"ACTIVE","operator":null,"country":"US","launch_date":"2023-10-18","launch_site_code":"AFETR","launch_vehicle":null,"mission":null,"orbit_class":"UNKNOWN","rcs_meters":null,"size_class":null,"mass_kg":null,"dimensions":null,"purposes":["comms"],"wikipedia_slug":null,"has_3d_model":false,"image_url":null,"decayed_at":null,"tle_current":{"epoch":"2026-09-20T17:33:43.257888Z","epoch_age_seconds":120410,"freshness":"FRESH","line1":"1 58086U 23160M   26263.73175067  .00001855  00000+0  76912-4 0  9991","line2":"2 58086  43.0001  59.9105 0001199 268.0122  92.0592 15.27580217162731","mean_motion":15.27580217,"eccentricity":0.0001199,"inclination_deg":43.0001,"raan_deg":59.9105,"arg_perigee_deg":268.0122,"mean_anomaly_deg":92.0592,"bstar":7.6912e-5,"rev_number":16273,"period_min":94.266735322614,"perigee_km":482.22579012866,"apogee_km":483.87110239867,"semimajor_km":6861.1854462637,"source":"CELESTRAK","updated_at":"2026-09-21T09:00:33.783601Z"}}}